Wind_Speed
8 10 11 11 11 11 11 12 12 12 11 11 10 10 9 8 7 6 5 5 5 5 6 7 9 10 11 14 16 16 17 17 16 15 13 11 11 10 10 10 9 9 9
6 7 8 9 10 10 10 10 11 12 11 11 10 10 9 8 7 7 6 5 4 4 4 5 5 6 8 10 12 14 16 17 17 16 15 13 12 11 11 10 11 11 10
5 5 6 7 7 7 8 8 9 10 11 11 10 10 9 9 8 7 7 6 6 5 4 4 3 3 4 6 8 11 12 13 15 15 14 14 11 11 10 10 9 8 8
4 5 5 5 5 5 5 6 6 7 8 9 9 9 9 9 8 7 7 7 7 6 5 4 3 3 3 3 4 6 7 9 10 11 12 10 8 7 7 7 7 6 6
5 5 5 5 4 4 3 3 4 4 5 6 7 7 8 8 8 8 7 7 8 7 6 5 5 5 5 4 4 3 4 5 5 5 6 5 4 4 4 4 4 3 3
6 6 6 7 6 5 4 3 2 1 1 2 3 3 4 5 5 6 7 7 7 8 7 7 6 6 6 5 5 4 5 5 4 3 3 3 1 1 1 1 0 0 0
7 8 8 8 8 8 7 7 6 4 4 3 2 1 1 1 2 3 4 5 6 7 7 7 7 6 6 6 5 5 5 5 4 4 3 2 2 3 3 2 2 2 2
9 9 10 10 10 11 10 10 9 8 7 7 6 5 5 3 2 1 1 2 3 4 5 6 7 7 6 6 6 5 5 5 5 5 4 4 4 5 5 5 4 3 3
10 11 12 12 12 12 13 13 13 12 11 10 10 9 8 7 6 5 4 3 2 1 2 4 5 6 6 6 6 6 5 5 5 5 4 4 4 5 5 4 4 4 4
13 13 13 14 14 15 15 15 15 15 15 14 13 12 11 10 10 9 8 7 6 4 3 2 2 3 4 4 5 5 5 5 5 5 4 4 4 4 4 4 4 4 4
16 17 17 16 16 17 17 18 18 17 17 17 17 16 15 14 13 12 11 11 9 8 7 5 4 3 2 2 3 4 4 4 4 4 3 3 4 4 3 3 3 3 3
20 20 20 20 20 20 20 20 21 20 20 20 20 20 19 18 17 16 15 14 13 12 11 9 8 6 5 4 3 3 3 3 3 3 3 2 2 2 2 2 2 2 2
23 23 23 24 24 24 23 23 23 23 24 24 24 24 23 22 20 19 18 17 16 15 15 13 12 10 9 8 7 5 4 3 3 3 3 3 2 2 1 1 0 1 1
26 27 27 27 28 28 28 28 27 27 27 28 28 28 27 25 24 22 21 20 19 18 18 17 16 14 13 12 11 9 8 7 6 6 6 5 4 4 3 3 3 3 2
30 30 30 31 31 31 31 31 32 32 32 31 29 30 31 29 26 25 24 22 22 21 21 20 19 18 16 15 14 13 11 10 9 9 9 8 7 6 6 6 6 5 5
35 36 36 36 36 36 36 35 35 35 35 34 34 33 33 31 30 28 28 26 25 24 23 23 21 20 19 17 16 15 14 13 12 12 12 11 10 9 9 8 9 8 8
39 39 40 41 41 41 41 41 41 40 39 38 37 37 36 35 33 32 32 30 29 28 27 26 24 23 21 20 18 17 16 16 16 15 15 15 13 12 12 11 11 11 11
39 40 41 42 43 45 46 46 46 46 45 44 43 42 41 39 37 36 34 33 32 31 30 29 27 26 24 22 21 19 18 17 18 17 17 18 16 15 14 14 14 14 13
38 38 39 40 42 43 45 47 49 49 49 49 48 46 45 44 41 39 38 36 36 35 33 31 29 28 27 25 23 22 20 19 19 19 19 19 19 19 17 16 16 15 16
36 37 38 39 40 41 43 45 46 47 48 50 50 49 48 46 44 42 40 39 37 37 36 35 33 31 28 27 25 23 22 21 21 20 20 20 20 20 20 19 18 18 17
35 36 38 39 40 41 43 44 46 47 47 48 49 50 50 50 48 46 44 41 39 38 37 36 34 33 30 28 25 24 23 23 23 23 22 22 22 22 22 22 21 20 20
34 35 36 37 38 40 42 43 45 46 48 49 49 50 51 51 50 48 47 46 41 38 37 36 33 32 32 29 26 23 22 22 22 23 23 24 23 23 23 23 23 23 22
30 31 32 33 35 37 39 40 42 44 46 47 49 50 51 51 50 49 47 47 44 41 37 36 34 32 31 29 28 25 22 22 21 20 21 22 23 24 24 24 24 23 23
27 27 27 28 30 32 33 35 37 39 41 43 46 47 47 48 49 49 46 46 45 42 39 37 36 35 32 29 27 26 25 24 23 21 21 21 22 23 24 24 24 24 23
23 24 25 26 27 28 29 30 31 33 35 37 40 42 43 44 45 46 46 44 43 42 41 39 37 34 33 30 28 27 25 25 23 23 22 23 23 23 23 24 25 25 24
19 19 20 21 23 24 24 23 25 26 28 31 33 35 37 39 40 42 42 41 41 41 40 40 37 35 33 32 30 29 27 27 26 24 24 24 24 23 22 23 24 25 25
Wind_Direction
109 105 100 95 92 89 87 86 87 87 88 88 90 94 100 105 111 119 130 149 167 185 198 210 219 224 228 228 229 233 235 233 233 239 245 254 260 265 272 281 286 290 299
125 116 111 105 100 95 92 90 88 88 89 90 90 92 95 100 104 109 114 125 139 153 169 188 202 216 223 228 231 235 235 234 234 238 244 251 256 263 270 277 282 288 295
155 141 131 121 113 105 99 94 90 88 89 89 91 91 92 94 97 101 105 108 113 122 134 150 164 176 201 220 229 232 232 233 234 239 246 250 251 260 268 275 282 288 290
197 178 167 155 139 126 115 105 97 91 89 88 89 91 91 91 92 95 99 100 100 104 111 122 130 136 143 160 189 213 221 222 226 235 245 251 248 255 264 274 281 284 284
241 217 204 197 186 173 155 134 116 100 93 91 91 92 92 89 88 90 93 94 93 94 93 97 104 111 121 129 144 155 168 179 191 218 238 242 237 248 261 271 277 282 282
265 251 235 226 220 214 208 202 191 174 125 98 97 98 95 90 87 87 88 88 89 89 88 87 91 99 108 116 124 129 143 151 166 179 202 218 192 215 252 262 250 320 317
270 265 254 245 239 234 231 230 235 239 243 249 251 240 174 116 102 95 90 87 86 88 88 86 87 92 102 109 114 118 130 138 144 148 161 150 128 108 99 95 105 92 91
272 270 266 258 252 248 246 245 245 249 251 251 253 255 253 249 242 224 170 111 97 90 88 87 87 89 96 105 111 114 121 131 136 144 143 131 117 108 97 90 88 78 90
274 270 271 267 262 257 254 252 252 253 255 254 253 253 253 253 251 247 241 231 209 162 113 97 91 90 93 100 106 110 117 125 129 135 137 127 118 108 96 85 75 71 79
278 273 268 267 266 263 259 256 254 255 255 255 254 252 252 251 251 249 247 244 240 234 219 177 128 111 102 102 106 110 115 120 123 131 135 127 119 108 95 83 75 71 74
277 276 274 270 266 264 261 259 258 256 256 254 253 252 250 249 248 248 247 245 244 242 240 232 215 196 171 136 129 123 122 124 130 136 136 133 124 114 101 87 75 68 68
275 274 274 272 268 265 262 260 259 258 258 256 254 252 250 248 246 246 246 245 244 245 245 243 238 232 227 219 206 189 163 147 142 151 152 153 148 132 116 95 74 59 52
270 270 271 271 272 270 268 265 262 259 257 256 255 253 250 248 246 244 245 245 245 246 246 246 245 242 238 236 233 229 220 206 192 203 204 198 202 204 205 209 318 0 4
268 268 268 268 269 270 270 269 267 263 260 258 254 254 254 252 250 247 243 244 245 246 247 247 246 245 241 240 240 238 235 228 221 230 232 229 231 234 239 245 254 271 291
268 267 267 267 267 268 269 269 268 266 264 263 259 257 255 252 250 250 246 243 245 246 246 246 246 246 244 241 240 240 240 238 231 236 241 240 241 244 248 251 254 260 269
269 268 267 266 267 267 267 267 267 267 267 264 262 261 259 256 253 251 249 245 245 246 246 246 246 245 246 244 243 243 242 243 239 237 243 244 244 246 249 253 255 259 263
271 270 269 268 267 267 267 267 266 266 267 267 266 262 263 261 256 253 250 246 245 245 245 245 246 245 245 244 245 245 244 243 244 241 242 245 245 247 250 253 256 258 261
275 273 272 270 269 268 267 267 267 267 267 266 265 264 265 263 257 255 253 249 246 245 247 245 245 245 244 244 244 245 247 245 245 243 241 243 246 247 249 253 257 259 260
278 277 276 274 273 271 270 270 269 268 267 266 265 265 265 264 263 260 256 252 249 246 245 244 245 244 243 242 243 244 246 247 246 245 243 242 244 247 249 251 256 260 261
281 280 278 277 275 274 273 272 271 270 268 268 266 265 264 263 263 262 260 257 253 250 248 246 244 243 242 243 243 244 246 247 247 247 246 244 244 245 248 250 254 259 262
284 282 280 279 277 275 274 273 271 270 269 267 266 265 263 261 260 259 259 260 257 254 253 250 246 243 242 240 240 243 246 248 247 247 248 248 246 244 246 250 253 257 259
287 286 284 282 280 278 276 274 271 270 269 268 266 265 263 261 260 259 260 260 259 256 254 252 248 243 241 239 238 241 244 244 245 246 247 249 248 246 246 249 251 255 259
290 289 288 286 283 280 277 274 271 270 269 267 266 264 263 261 259 259 259 257 256 254 252 251 247 244 242 239 240 241 240 240 242 247 248 249 249 248 249 251 250 252 255
296 294 292 291 289 286 282 277 274 271 270 268 265 263 261 258 257 257 256 255 254 253 251 249 249 245 242 239 238 240 240 242 243 246 249 249 248 249 250 252 253 252 253
303 301 300 298 297 295 290 283 279 277 274 271 266 262 259 256 253 253 252 252 251 250 250 250 247 245 242 241 240 241 240 242 242 244 244 246 248 249 251 253 254 255 255
317 315 313 309 305 303 300 295 287 283 279 275 269 263 257 253 250 249 248 249 249 248 248 248 245 243 241 242 241 241 240 241 241 243 244 242 244 246 248 253 255 256 257
Height
5914 5913 5913 5913 5913 5912 5912 5911 5910 5909 5908 5907 5907 5906 5906 5905 5905 5905 5905 5905 5905 5906 5906 5906 5907 5908 5909 5910 5911 5912 5913 5914 5915 5916 5917 5917 5918 5918 5918 5918 5918 5918 5918
5915 5915 5915 5915 5914 5914 5914 5913 5912 5911 5910 5909 5909 5908 5908 5907 5907 5907 5906 5906 5906 5906 5906 5906 5907 5907 5908 5908 5909 5910 5911 5912 5913 5914 5915 5916 5916 5917 5917 5917 5917 5917 5917
5916 5916 5916 5916 5916 5916 5915 5915 5914 5913 5912 5912 5911 5910 5910 5909 5909 5908 5908 5907 5907 5906 5906 5906 5906 5907 5907 5907 5908 5908 5909 5910 5911 5912 5913 5913 5914 5915 5915 5915 5915 5916 5916
5917 5917 5917 5917 5917 5917 5917 5916 5916 5915 5914 5914 5913 5912 5912 5911 5910 5910 5909 5908 5908 5907 5907 5907 5907 5906 5907 5907 5907 5908 5908 5909 5910 5911 5911 5911 5913 5914 5914 5914 5914 5915 5915
5918 5917 5917 5917 5917 5917 5917 5917 5917 5917 5916 5915 5915 5914 5913 5913 5912 5911 5911 5910 5909 5908 5908 5907 5907 5907 5907 5907 5907 5908 5908 5909 5910 5911 5910 5911 5912 5913 5913 5913 5913 5914 5914
5918 5918 5917 5917 5917 5917 5917 5917 5917 5917 5917 5916 5916 5915 5915 5914 5914 5913 5912 5911 5910 5909 5909 5908 5908 5907 5907 5907 5908 5908 5908 5909 5910 5910 5911 5911 5912 5913 5913 5913 5913 5913 5913
5917 5917 5917 5917 5917 5917 5917 5917 5917 5917 5916 5916 5916 5916 5915 5915 5915 5914 5913 5913 5912 5911 5910 5909 5909 5908 5908 5908 5908 5908 5909 5910 5910 5911 5911 5912 5912 5913 5913 5913 5913 5913 5913
5916 5916 5915 5915 5915 5915 5916 5916 5916 5916 5916 5916 5915 5915 5915 5915 5915 5914 5914 5913 5913 5912 5911 5911 5910 5909 5909 5909 5909 5909 5910 5910 5911 5911 5912 5912 5913 5913 5913 5913 5914 5914 5914
5914 5914 5913 5913 5913 5913 5914 5914 5914 5914 5914 5914 5914 5914 5914 5914 5914 5914 5914 5913 5913 5913 5912 5912 5911 5911 5910 5910 5910 5910 5910 5911 5911 5912 5912 5913 5913 5913 5914 5914 5914 5914 5914
5911 5911 5911 5911 5910 5911 5911 5911 5911 5911 5912 5912 5912 5912 5912 5913 5913 5913 5913 5913 5912 5912 5912 5912 5912 5911 5911 5911 5911 5911 5911 5912 5912 5913 5913 5913 5913 5914 5914 5914 5915 5915 5915
5909 5908 5908 5908 5908 5908 5908 5907 5907 5908 5908 5908 5909 5909 5910 5910 5910 5911 5911 5911 5911 5911 5912 5912 5912 5912 5911 5911 5911 5911 5912 5912 5913 5913 5913 5913 5914 5914 5914 5915 5915 5916 5916
5906 5905 5904 5904 5903 5903 5903 5904 5904 5904 5904 5904 5905 5905 5906 5907 5907 5908 5908 5909 5909 5910 5910 5910 5911 5911 5911 5911 5911 5911 5912 5912 5913 5913 5913 5914 5914 5914 5915 5915 5916 5916 5917
5902 5901 5900 5900 5899 5899 5898 5899 5899 5899 5899 5899 5899 5900 5901 5902 5903 5904 5905 5905 5906 5907 5908 5908 5909 5909 5910 5910 5910 5911 5911 5912 5913 5913 5913 5913 5914 5914 5915 5915 5916 5916 5917
5896 5896 5895 5894 5894 5893 5893 5893 5893 5893 5893 5893 5893 5894 5895 5896 5898 5899 5901 5901 5902 5904 5904 5905 5906 5907 5908 5908 5909 5909 5910 5911 5912 5912 5912 5913 5913 5914 5914 5915 5915 5916 5916
5890 5889 5889 5888 5887 5887 5887 5887 5886 5886 5886 5884 5885 5888 5888 5889 5892 5894 5896 5897 5898 5899 5900 5901 5903 5904 5905 5906 5906 5907 5908 5909 5911 5911 5911 5912 5912 5913 5913 5914 5915 5915 5916
5882 5882 5881 5881 5881 5880 5880 5880 5880 5880 5879 5880 5880 5881 5881 5882 5885 5887 5889 5891 5893 5894 5896 5897 5898 5900 5901 5902 5903 5904 5905 5906 5907 5909 5909 5910 5910 5911 5912 5913 5913 5914 5915
5874 5873 5873 5872 5872 5872 5872 5872 5872 5872 5872 5873 5873 5873 5874 5875 5878 5880 5882 5884 5886 5888 5890 5891 5893 5895 5896 5897 5898 5900 5901 5902 5903 5905 5906 5907 5908 5909 5910 5911 5912 5912 5913
5865 5864 5863 5863 5863 5863 5862 5862 5863 5863 5863 5864 5865 5866 5867 5867 5869 5871 5873 5876 5879 5881 5883 5885 5887 5889 5891 5893 5894 5895 5896 5898 5899 5901 5903 5904 5905 5906 5907 5908 5909 5910 5911
5856 5855 5854 5853 5853 5852 5852 5852 5852 5853 5854 5855 5856 5857 5858 5859 5860 5862 5864 5867 5870 5873 5876 5878 5880 5882 5885 5887 5888 5890 5892 5893 5895 5896 5898 5900 5902 5903 5904 5905 5906 5907 5908
5847 5845 5844 5843 5843 5842 5842 5841 5841 5841 5842 5843 5845 5847 5848 5850 5852 5854 5856 5859 5862 5865 5868 5870 5873 5875 5878 5881 5883 5885 5887 5888 5890 5891 5893 5895 5897 5899 5899 5901 5902 5903 5904
5838 5836 5834 5833 5832 5832 5831 5830 5830 5830 5830 5831 5832 5835 5837 5839 5842 5845 5848 5851 5854 5857 5860 5863 5865 5868 5871 5874 5877 5879 5881 5882 5884 5886 5887 5889 5891 5894 5895 5896 5898 5899 5900
5829 5827 5825 5823 5822 5820 5819 5818 5818 5818 5818 5819 5820 5822 5824 5827 5830 5834 5838 5842 5845 5849 5852 5855 5857 5860 5863 5866 5869 5872 5874 5876 5877 5879 5881 5883 5885 5888 5890 5892 5893 5894 5895
5820 5818 5816 5813 5811 5809 5807 5806 5805 5805 5805 5806 5807 5809 5811 5814 5818 5822 5827 5832 5836 5840 5844 5847 5850 5852 5856 5859 5862 5865 5867 5869 5871 5874 5875 5877 5879 5882 5884 5886 5887 5889 5891
5813 5810 5808 5805 5802 5799 5797 5795 5794 5793 5793 5793 5793 5795 5798 5801 5806 5810 5815 5820 5825 5830 5834 5838 5841 5844 5848 5851 5854 5857 5860 5862 5865 5867 5870 5871 5873 5875 5878 5880 5881 5883 5886
5808 5804 5801 5798 5795 5791 5788 5786 5784 5783 5782 5781 5781 5783 5785 5788 5793 5798 5804 5809 5814 5820 5825 5829 5833 5836 5839 5843 5846 5850 5853 5856 5858 5860 5863 5865 5867 5869 5871 5874 5876 5877 5880
5803 5800 5796 5792 5789 5785 5782 5779 5776 5774 5773 5772 5771 5772 5774 5777 5782 5787 5792 5798 5803 5809 5814 5819 5823 5827 5831 5834 5838 5842 5845 5848 5851 5853 5856 5858 5861 5863 5865 5867 5869 5871 5873